This is the latest recevied weather packets stored in our database for station/object HP3ICC-16. If no packets are shown the sender has not sent any weather packets the latest 1 day(s).
| Time | Temp. | Humidity | Pressure | Rain* | Wind** | Luminosity | Snow |
|---|---|---|---|---|---|---|---|
| 1778100221 | 28.33° C | 70% | 1008 hPa | 0.25 mm | - | - | - |
| 1778099020 | 28.89° C | 70% | 1009 hPa | 0 mm | - | - | - |
| 1778094218 | 31.11° C | 70% | 1010 hPa | 0 mm | - | - | - |
| 1778093077 | 31.67° C | 70% | 1009 hPa | 0.25 mm | - | - | - |
| 1778093017 | 31.67° C | 70% | 1009 hPa | 0.25 mm | - | - | - |
| 1778091817 | 28.33° C | 74% | 1010 hPa | 0 mm | - | - | - |
| 1778081072 | 26.67° C | 79% | 1011 hPa | 0 mm | - | - | - |
| 1778076270 | 25.56° C | 89% | 1011 hPa | 0 mm | - | - | - |
| 1778075009 | 25° C | 89% | 1011 hPa | 0 mm | - | - | - |
| 1778072608 | 23.33° C | 94% | 1010 hPa | 0 mm | - | - | - |
| 1778071408 | 23.33° C | 94% | 1010 hPa | 0 mm | - | - | - |
| 1778067866 | 21.67° C | 85% | 1010 hPa | 0 mm | - | - | - |
| 1778067806 | 21.67° C | 85% | 1010 hPa | 0 mm | - | - | - |
| 1778065465 | 22.78° C | 85% | 1009 hPa | 0 mm | - | - | - |
| 1778063064 | 22.22° C | 88% | 1009 hPa | 0 mm | - | - | - |
| 1778061863 | 22.78° C | 88% | 1009 hPa | 0 mm | - | - | - |
| 1778060663 | 23.33° C | 88% | 1009 hPa | 0 mm | - | - | - |
| 1778059462 | 23.89° C | 88% | 1009 hPa | 0 mm | - | - | - |
| 1778059402 | 23.89° C | 88% | 1009 hPa | 0 mm | - | - | - |
| 1778054660 | 23.33° C | 89% | 1010 hPa | 0 mm | - | - | - |
| 1778054600 | 23.33° C | 89% | 1010 hPa | 0 mm | - | - | - |
| 1778052259 | 24.44° C | 89% | 1010 hPa | 0 mm | - | - | - |
| 1778052199 | 24.44° C | 89% | 1010 hPa | 0 mm | - | - | - |
| 1778051058 | 25° C | 89% | 1010 hPa | 0 mm | - | - | - |
| 1778050998 | 25° C | 89% | 1010 hPa | 0 mm | - | - | - |
* Rain latest hour (hover to see other rain measurements)
** Current wind speed in m/s (hover to see current wind gust speed)